When you browse on this site, cookies collect data to enhance your experience and personalize the content and advertising you see.
Visit our Privacy Policy to learn more. By continuing to use the site, you agree to this use of cookies and data.
  • în România
  • Lista ţărilor
  • Pe 7 zile
  • Temperatura apei
  • Meteo pe hartă
  • Widget-uri
  • user-avatar
    Intrare

    Meteo pe oră la Ali Bayramli

    Astăzi, 13 Decembrie, Vineri

    Timp Temperatura Precipitaţii Vânt Presiune Umiditate
    00:00 +9°C° 0.2 mm 2 m/s 761 mmHg 85%
    01:00 +9°C° 0.3 mm 2 m/s 761 mmHg 84%
    02:00 +8°C° 0.3 mm 2 m/s 760 mmHg 84%
    03:00 +8°C° 0 mm 2 m/s 760 mmHg 83%
    04:00 +8°C° 0.3 mm 2 m/s 760 mmHg 82%
    05:00 +8°C° 0.3 mm 2 m/s 760 mmHg 82%
    06:00 +8°C° 0.3 mm 2 m/s 760 mmHg 81%
    07:00 +8°C° 0.2 mm 2 m/s 760 mmHg 79%
    08:00 +9°C° 0.2 mm 2 m/s 760 mmHg 76%
    09:00 +9°C° 0 mm 2 m/s 761 mmHg 74%
    10:00 +9°C° 0.1 mm 2 m/s 760 mmHg 73%
    11:00 +9°C° 0.1 mm 2 m/s 760 mmHg 72%
    12:00 +9°C° 0.1 mm 2 m/s 760 mmHg 72%
    13:00 +9°C° 0.1 mm 2 m/s 760 mmHg 71%
    14:00 +10°C° 0.1 mm 1 m/s 760 mmHg 71%
    15:00 +10°C° 0 mm 1 m/s 760 mmHg 70%
    16:00 +10°C° 0 mm 1 m/s 760 mmHg 73%
    17:00 +9°C° 0 mm 0 m/s 760 mmHg 75%
    18:00 +9°C° 0 mm 0 m/s 760 mmHg 77%
    19:00 +9°C° 0.1 mm 0 m/s 760 mmHg 77%
    20:00 +9°C° 0.1 mm 0 m/s 760 mmHg 77%
    21:00 +9°C° 0.1 mm 0 m/s 760 mmHg 77%
    22:00 +9°C° 0 mm 0 m/s 760 mmHg 76%
    23:00 +10°C° 0 mm 1 m/s 760 mmHg 74%

    Mâine, 14 Decembrie, Sâmbătă

    Timp Temperatura Precipitaţii Vânt Presiune Umiditate
    00:00 +10°C° 0 mm 1 m/s 760 mmHg 72%
    01:00 +9°C° 0 mm 1 m/s 760 mmHg 72%
    02:00 +8°C° 0 mm 2 m/s 760 mmHg 72%
    03:00 +8°C° 0 mm 2 m/s 760 mmHg 71%
    04:00 +7°C° 0 mm 2 m/s 761 mmHg 72%
    05:00 +7°C° 0 mm 2 m/s 761 mmHg 72%
    06:00 +7°C° 0 mm 2 m/s 761 mmHg 73%
    07:00 +7°C° 0 mm 2 m/s 761 mmHg 70%
    08:00 +7°C° 0 mm 2 m/s 761 mmHg 68%
    09:00 +8°C° 0 mm 2 m/s 761 mmHg 66%
    10:00 +9°C° 0 mm 2 m/s 761 mmHg 62%
    11:00 +10°C° 0 mm 2 m/s 761 mmHg 58%
    12:00 +12°C° 0 mm 2 m/s 761 mmHg 54%
    13:00 +12°C° 0 mm 2 m/s 761 mmHg 53%
    14:00 +12°C° 0 mm 2 m/s 760 mmHg 53%
    15:00 +13°C° 0 mm 2 m/s 760 mmHg 53%
    16:00 +12°C° 0 mm 1 m/s 761 mmHg 59%
    17:00 +11°C° 0 mm 1 m/s 761 mmHg 64%
    18:00 +10°C° 0 mm 1 m/s 761 mmHg 70%
    19:00 +10°C° 0 mm 1 m/s 761 mmHg 73%
    20:00 +8°C° 0 mm 0 m/s 762 mmHg 76%
    21:00 +8°C° 0 mm 0 m/s 762 mmHg 78%
    22:00 +8°C° 0 mm 0 m/s 761 mmHg 77%
    23:00 +9°C° 0 mm 1 m/s 761 mmHg 76%

    Poimâine, 15 Decembrie, Duminică

    Timp Temperatura Precipitaţii Vânt Presiune Umiditate
    00:00 +9°C° 0 mm 1 m/s 761 mmHg 74%
    01:00 +9°C° 0 mm 1 m/s 761 mmHg 74%
    02:00 +8°C° 0 mm 1 m/s 761 mmHg 73%
    03:00 +8°C° 0 mm 1 m/s 761 mmHg 73%
    04:00 +8°C° 0 mm 1 m/s 761 mmHg 72%
    05:00 +8°C° 0 mm 1 m/s 761 mmHg 71%
    06:00 +8°C° 0 mm 1 m/s 760 mmHg 70%
    07:00 +8°C° 0 mm 1 m/s 761 mmHg 66%
    08:00 +9°C° 0 mm 1 m/s 761 mmHg 63%
    09:00 +10°C° 0 mm 1 m/s 761 mmHg 60%
    10:00 +11°C° 0 mm 1 m/s 761 mmHg 57%
    11:00 +11°C° 0 mm 1 m/s 760 mmHg 54%
    12:00 +12°C° 0 mm 1 m/s 760 mmHg 51%
    13:00 +12°C° 0 mm 1 m/s 760 mmHg 50%
    14:00 +13°C° 0 mm 1 m/s 760 mmHg 50%
    15:00 +13°C° 0 mm 1 m/s 760 mmHg 50%
    16:00 +11°C° 0 mm 0 m/s 760 mmHg 54%
    17:00 +10°C° 0 mm 0 m/s 761 mmHg 59%
    18:00 +9°C° 0 mm 0 m/s 761 mmHg 64%
    19:00 +9°C° 0 mm 0 m/s 761 mmHg 64%
    20:00 +9°C° 0 mm 0 m/s 762 mmHg 64%
    21:00 +10°C° 0 mm 1 m/s 762 mmHg 64%
    22:00 +9°C° 0 mm 1 m/s 762 mmHg 68%
    23:00 +8°C° 0 mm 2 m/s 762 mmHg 71%

    16 Decembrie, Luni

    Timp Temperatura Precipitaţii Vânt Presiune Umiditate
    00:00 +8°C° 0 mm 2 m/s 763 mmHg 75%
    01:00 +8°C° 0 mm 2 m/s 763 mmHg 77%
    02:00 +8°C° 0 mm 2 m/s 763 mmHg 80%
    03:00 +8°C° 0 mm 2 m/s 763 mmHg 82%
    04:00 +9°C° 0 mm 1 m/s 763 mmHg 82%
    05:00 +9°C° 0 mm 1 m/s 763 mmHg 82%
    06:00 +9°C° 0 mm 1 m/s 764 mmHg 82%
    07:00 +10°C° 0 mm 1 m/s 764 mmHg 78%
    08:00 +10°C° 0 mm 1 m/s 764 mmHg 74%
    09:00 +11°C° 0 mm 1 m/s 765 mmHg 70%
    10:00 +12°C° 0 mm 1 m/s 765 mmHg 67%
    11:00 +12°C° 0 mm 1 m/s 765 mmHg 64%
    12:00 +13°C° 0 mm 1 m/s 765 mmHg 61%
    13:00 +13°C° 0 mm 1 m/s 765 mmHg 60%
    14:00 +13°C° 0 mm 1 m/s 765 mmHg 60%
    15:00 +13°C° 0 mm 1 m/s 765 mmHg 60%
    16:00 +12°C° 0 mm 1 m/s 765 mmHg 65%
    17:00 +12°C° 0 mm 1 m/s 766 mmHg 70%
    18:00 +11°C° 0 mm 1 m/s 766 mmHg 76%
    19:00 +10°C° 0 mm 1 m/s 766 mmHg 79%
    20:00 +9°C° 0 mm 2 m/s 767 mmHg 83%
    21:00 +9°C° 0 mm 2 m/s 767 mmHg 86%
    22:00 +8°C° 0 mm 2 m/s 767 mmHg 88%
    23:00 +8°C° 0 mm 2 m/s 767 mmHg 89%

    17 Decembrie, Marţi

    Timp Temperatura Precipitaţii Vânt Presiune Umiditate
    00:00 +8°C° 0 mm 1 m/s 768 mmHg 91%
    01:00 +8°C° 0 mm 1 m/s 768 mmHg 90%
    02:00 +7°C° 0 mm 2 m/s 768 mmHg 90%
    03:00 +7°C° 0 mm 2 m/s 768 mmHg 89%
    04:00 +8°C° 0 mm 1 m/s 768 mmHg 89%
    05:00 +7°C° 0 mm 1 m/s 768 mmHg 90%
    06:00 +7°C° 0 mm 1 m/s 768 mmHg 90%
    07:00 +8°C° 0 mm 1 m/s 769 mmHg 85%
    08:00 +9°C° 0 mm 1 m/s 769 mmHg 80%
    09:00 +9°C° 0 mm 2 m/s 770 mmHg 76%
    10:00 +10°C° 0 mm 2 m/s 770 mmHg 73%
    11:00 +10°C° 0 mm 3 m/s 769 mmHg 70%
    12:00 +11°C° 0 mm 3 m/s 769 mmHg 68%
    13:00 +12°C° 0 mm 2 m/s 769 mmHg 66%
    14:00 +12°C° 0 mm 2 m/s 769 mmHg 65%
    15:00 +13°C° 0 mm 1 m/s 769 mmHg 64%
    16:00 +12°C° 0 mm 1 m/s 769 mmHg 70%
    17:00 +10°C° 0 mm 2 m/s 769 mmHg 75%
    18:00 +9°C° 0 mm 2 m/s 770 mmHg 80%
    19:00 +8°C° 0 mm 2 m/s 770 mmHg 82%
    20:00 +9°C° 0 mm 1 m/s 770 mmHg 85%
    21:00 +8°C° 0 mm 1 m/s 771 mmHg 87%
    22:00 +8°C° 0 mm 1 m/s 771 mmHg 88%
    23:00 +8°C° 0 mm 1 m/s 771 mmHg 88%

    18 Decembrie, Miercuri

    Timp Temperatura Precipitaţii Vânt Presiune Umiditate
    00:00 +8°C° 0 mm 1 m/s 771 mmHg 89%
    01:00 +7°C° 0 mm 1 m/s 770 mmHg 90%
    02:00 +7°C° 0 mm 1 m/s 770 mmHg 90%
    03:00 +7°C° 0 mm 1 m/s 770 mmHg 91%
    04:00 +7°C° 0 mm 1 m/s 770 mmHg 91%
    05:00 +7°C° 0 mm 1 m/s 770 mmHg 91%
    06:00 +6°C° 0 mm 1 m/s 770 mmHg 91%
    07:00 +7°C° 0 mm 1 m/s 770 mmHg 88%
    08:00 +8°C° 0 mm 1 m/s 770 mmHg 84%
    09:00 +8°C° 0 mm 2 m/s 770 mmHg 81%
    10:00 +9°C° 0 mm 2 m/s 770 mmHg 76%
    11:00 +10°C° 0 mm 2 m/s 770 mmHg 72%
    12:00 +11°C° 0 mm 3 m/s 769 mmHg 67%
    13:00 +11°C° 0 mm 3 m/s 769 mmHg 65%
    14:00 +13°C° 0 mm 2 m/s 769 mmHg 63%
    15:00 +13°C° 0 mm 2 m/s 768 mmHg 61%
    16:00 +12°C° 0 mm 2 m/s 769 mmHg 65%
    17:00 +10°C° 0 mm 2 m/s 769 mmHg 69%
    18:00 +10°C° 0 mm 2 m/s 769 mmHg 73%
    19:00 +9°C° 0 mm 2 m/s 769 mmHg 76%
    20:00 +9°C° 0 mm 2 m/s 769 mmHg 78%
    21:00 +8°C° 0 mm 2 m/s 769 mmHg 80%
    22:00 +8°C° 0 mm 2 m/s 769 mmHg 82%
    23:00 +8°C° 0 mm 2 m/s 769 mmHg 84%
    Arată mai mult